FW6155 Weather Reports


Display with metric or nautical units.
time (UTC)temp
F
wind
direction
speed
MPH
gust
MPH
rain 1hr
in
rain 24hr
in
rain mn
in
humidity
%
barometer
mb
20260507021543 57 0.0 0.0 0.00 0.00 0.00 78 1021.2
20260507020040 57 0.0 0.0 0.00 0.00 0.00 78 1021.4
20260507014551 58 0.0 0.0 0.00 0.00 0.00 78 1021.5
20260507013046 58 0.0 0.0 0.00 0.00 0.00 77 1021.4
20260507011545 58 0.0 0.0 0.00 0.00 0.00 77 1021.3
20260507010045 58 0.0 0.0 0.00 0.00 0.00 77 1021.4
20260507004551 58 0.0 0.0 0.00 0.00 0.00 77 1021.4
20260507003052 58 0.0 0.0 0.00 0.00 0.00 77 1021.6
20260507001545 58 0.0 0.0 0.00 0.00 0.00 77 1021.5
20260507000045 58 0.0 0.0 0.00 0.00 0.00 77 1021.6
20260506234543 58 0.0 0.0 0.00 0.00 0.00 76 1021.6
20260506233108 58 0.0 0.0 0.00 0.00 0.00 75 1021.4
20260506231543 57 0.0 0.0 0.00 0.00 0.00 76 1021.8
20260506230051 57 0.0 0.0 0.00 0.00 0.00 76 1021.7
20260506224546 57 0.0 0.0 0.00 0.00 0.00 76 1021.8
20260506223043 57 0.0 0.0 0.00 0.00 0.00 77 1021.7
20260506221543 57 0.0 0.0 0.00 0.00 0.00 77 1022.0
20260506220044 57 0.0 0.0 0.00 0.00 0.00 78 1021.9
20260506214543 57 0.0 0.0 0.00 0.00 0.00 78 1021.9
20260506213038 57 0.0 0.0 0.00 0.00 0.00 77 1022.0
20260506211538 57 0.0 0.0 0.00 0.00 0.00 78 1021.9
20260506210045 57 0.0 0.0 0.00 0.00 0.00 78 1021.9
20260506204549 56 0.0 0.0 0.00 0.00 0.00 78 1021.8
20260506203043 56 0.0 0.0 0.00 0.00 0.00 81 1021.7
20260506201542 56 0.0 0.0 0.00 0.00 0.00 81 1021.8
20260506200039 56 0.0 0.0 0.00 0.00 0.00 81 1021.8
20260506194546 56 0.0 0.0 0.00 0.00 0.00 83 1021.8
20260506193046 56 0.0 0.0 0.00 0.00 0.00 82 1021.6
20260506191543 55 0.0 0.0 0.00 0.00 0.00 84 1021.5
20260506190044 55 0.0 0.0 0.00 0.00 0.00 84 1021.4
20260506184542 55 0.0 0.0 0.00 0.00 0.00 84 1021.5
20260506183049 55 0.0 0.0 0.00 0.00 0.00 85 1021.3
20260506181544 55 0.0 0.0 0.00 0.00 0.00 85 1021.4
20260506180056 55 0.0 0.0 0.00 0.00 0.00 86 1021.0
20260506174544 54 0.0 0.0 0.00 0.00 0.00 87 1021.1
20260506173044 54 0.0 0.0 0.00 0.00 0.00 88 1021.3
20260506171540 54 0.0 0.0 0.00 0.00 0.00 88 1021.4
20260506170103 54 0.0 0.0 0.00 0.00 0.00 88 1021.3
20260506164544 54 0.0 0.0 0.00 0.00 0.00 89 1021.1
20260506163104 53 0.0 0.0 0.00 0.00 0.00 89 1020.8
20260506161544 53 0.0 0.0 0.00 0.00 0.00 89 1020.6
20260506160052 53 0.0 0.0 0.00 0.00 0.00 89 1020.7
20260506154606 53 0.0 0.0 0.00 0.00 0.00 89 1020.8
20260506153054 54 0.0 0.0 0.00 0.00 0.00 89 1020.9
20260506151547 54 0.0 0.0 0.00 0.00 0.00 89 1020.5
20260506150044 54 0.0 0.0 0.00 0.00 0.00 89 1020.6
20260506144546 54 0.0 0.0 0.00 0.00 0.00 88 1020.7
20260506143102 54 0.0 0.0 0.00 0.00 0.00 88 1020.6
20260506141549 54 0.0 0.0 0.00 0.00 0.00 88 1020.3
20260506140048 54 0.0 0.0 0.00 0.00 0.00 88 1020.5
20260506134552 54 0.0 0.0 0.00 0.00 0.00 88 1020.3
20260506133044 54 0.0 0.0 0.00 0.00 0.00 87 1020.3
20260506131545 54 0.0 0.0 0.00 0.00 0.00 88 1020.2
20260506130044 54 0.0 0.0 0.00 0.00 0.00 87 1019.9
20260506124542 53 0.0 0.0 0.00 0.00 0.00 87 1019.9
20260506123038 54 0.0 0.0 0.00 0.00 0.00 87 1019.8
20260506121546 54 0.0 0.0 0.00 0.00 0.00 87 1019.8
20260506120055 54 0.0 0.0 0.00 0.00 0.00 86 1019.9
20260506114553 54 0.0 0.0 0.00 0.00 0.00 85 1019.5
20260506113050 54 0.0 0.0 0.00 0.00 0.00 85 1019.6
20260506111542 54 0.0 0.0 0.00 0.00 0.00 85 1019.6
20260506110055 54 0.0 0.0 0.00 0.00 0.00 85 1019.5
20260506104544 55 0.0 0.0 0.00 0.00 0.00 84 1019.4
20260506103044 55 0.0 0.0 0.00 0.00 0.00 84 1019.3
20260506101544 55 0.0 0.0 0.00 0.00 0.00 84 1019.2
20260506100045 55 0.0 0.0 0.00 0.00 0.00 85 1019.1
20260506094559 55 0.0 0.0 0.00 0.00 0.00 84 1018.9
20260506093052 55 0.0 0.0 0.00 0.00 0.00 84 1018.9
20260506091545 55 0.0 0.0 0.00 0.00 0.00 85 1018.7
20260506090043 55 0.0 0.0 0.00 0.00 0.00 85 1018.6
20260506084546 54 0.0 0.0 0.00 0.00 0.00 86 1018.4
20260506083043 54 0.0 0.0 0.00 0.00 0.00 86 1018.4
20260506081540 54 0.0 0.0 0.00 0.00 0.00 87 1018.2
20260506073047 55 0.0 0.0 0.00 0.00 0.00 87 1018.0
20260506071544 55 0.0 0.0 0.00 0.00 0.00 87 1017.9
20260506061545 56 0.0 0.0 0.00 0.00 0.00 86 1017.4
20260506044550 57 0.0 0.0 0.00 0.00 0.00 84 1016.6
20260506043044 58 0.0 0.0 0.00 0.00 0.00 84 1016.6
20260506041548 58 0.0 0.0 0.00 0.00 0.00 84 1016.6
20260506040100 58 0.0 0.0 0.00 0.00 0.00 84 1016.6
20260506034558 59 0.0 0.0 0.00 0.00 0.00 83 1016.3
20260506033045 59 0.0 0.0 0.00 0.00 0.00 82 1016.2
20260506031556 60 0.0 0.0 0.00 0.00 0.00 81 1016.1
20260506030042 60 0.0 0.0 0.00 0.00 0.00 80 1016.1
20260506024543 61 0.0 0.0 0.00 0.00 0.00 79 1015.9
20260506023039 61 0.0 0.0 0.00 0.00 0.00 78 1015.9